SCP
0 0 0 0 0 0 0 0 0 0 0 0 0 0 0 0 0 0 0 0 0 0 0 0 0 0 0 0 0 0 0 0 0 0 0 0 0 0 0 0 0 0 0
0 0 0 0 0 0 0 0 0 0 0 0 0 0 0 0 0 0 0 0 0 0 0 0 0 0 0 0 0 0 0 0 0 0 0 0 0 0 0 0 0 0 0
0 0 0 0 0 0 0 0 0 0 0 0 0 0 0 0 0 0 0 0 0 0 0 0 0 0 0 0 0 0 0 0 0 0 0 0 0 0 0 0 0 0 0
0 0 0 0 0 0 0 0 0 0 0 0 0 0 0 0 0 0 0 0 0 0 0 0 0 0 0 0 0 0 0 0 0 0 0 0 0 0 0 0 0 0 0
0 0 0 0 0 0 0 0 0 0 0 0 0 0 0 0 0 0 0 0 0 0 0 0 0 0 0 0 0 0 0 0 0 0 0 0 0 0 0 0 0 0 0
0 0 0 0 0 0 0 0 0 0 0 0 0 0 0 0 0 0 0 0 0 0 0 0 0 0 0 0 0 0 0 0 0 0 0 0 0 0 0 0 0 0 0
0 0 0 0 0 0 0 0 0 0 0 0 0 0 0 0 0 0 0 0 0 0 0 0 0 0 0 0 0 0 0 0 0 0 0 0 0 0 0 0 0 0 0
0 0 0 0 0 0 0 0 0 0 0 0 0 0 0 0 0 0 0 0 0 0 0 0 0 0 0 0 0 0 0 0 0 0 0 0 0 0 0 0 0 0 0
0 0 0 0 0 0 0 0 0 0 0 0 0 0 0 0 0 0 0 0 0 0 0 0 0 0 0 0 0 0 0 0 0 0 0 0 0 0 0 0 0 0 0
0 0 0 0 0 0 0 0 0 0 0 0 0 0 0 0 0 0 0 0 0 0 0 0 0 0 0 0 0 0 0 0 0 0 0 0 0 0 0 0 0 0 0
0 0 0 0 0 0 0 0 0 0 0 0 0 0 0 0 0 0 0 0 0 0 0 0 0 0 0 0 0 0 0 0 0 0 0 0 0 0 0 0 0 0 0
0 0 0 0 0 0 0 0 0 0 0 0 0 0 0 0 0 0 0 0 0 0 0 0 0 0 0 0 0 0 0 0 0 0 0 0 0 0 0 0 0 0 0
0 0 0 0 0 0 0 0 0 0 0 0 0 0 0 0 0 0 0 0 0 0 0 0 0 0 0 0 0 0 0 0 0 0 0 0 0 0 0 0 0 0 0
0 0 0 0 0 0 0 0 0 0 0 0 0 0 0 0 0 0 0 0 0 0 0 0 0 0 0 0 0 0 0 0 0 0 0 0 0 0 0 0 0 0 0
0 0 0 0 0 0 0 0 0 0 0 0 0 0 0 0 0 0 0 0 0 0 0 0 0 0 0 0 0 0 0 0 0 0 0 0 0 0 0 0 0 0 0
0 0 0 0 0 0 0 0 0 0 0 0 0 0 0 0 0 0 0 0 0 0 0 0 0 0 0 0 0 0 0 0 0 0 0 0 0 0 0 0 0 0 0
0 0 0 0 0 0 0 0 0 0 0 0 0 0 0 0 0 0 0 0 0 0 0 0 0 0 0 0 0 0 0 0 0 0 0 0 0 0 0 0 0 0 0
-0 -0 0 0 0 0 0 0 0 0 0 0 0 0 0 0 0 0 0 0 0 0 0 0 0 0 0 0 0 0 0 0 0 0 0 0 0 0 0 0 0 0 0
0 0 0 0 -0 0 0 -0 0 0 0 0 0 0 0 0 0 0 0 0 0 0 0 0 0 0 0 0 0 0 0 0 0 0 0 0 0 0 0 0 0 0 0
0 0 0 0 0 0 0 0 0 0 0 0 0 0 0 0 0 0 0 0 0 0 0 0 0 0 0 0 0 0 0 0 0 0 0 0 0 0 0 0 0 0 0
0 0 0 0 0 0 0 0 0 0 0 0 0 0 0 0 0 0 0 0 0 0 0 0 0 0 0 0 0 0 0 0 0 0 0 0 0 0 0 0 0 0 0
0 0 0 -0 0 0 0 0 0 0 0 0 0 0 0 0 0 0 0 0 0 0 0 0 0 0 0 0 0 0 0 0 0 0 0 0 0 0 0 0 0 0 0
0 0 -0 -0 0 0 0 0 0 0 0 0 0 0 0 0 0 0 0 0 0 0 0 0 0 0 0 0 0 0 0 0 0 0 0 0 0 0 0 0 0 0 0
-0 0 0 0 0 0 0 0 0 0 0 0 0 0 0 0 0 0 0 0 0 0 0 0 0 0 0 0 0 0 0 0 0 0 0 0 0 0 0 0 0 0 0
0 0 0 0 0 0 0 0 0 0 0 0 0 0 0 0 0 0 0 0 0 0 0 0 0 0 0 0 0 0 0 0 0 0 0 0 0 0 0 0 0 0 0
-0 0 0 0 0 0 0 0 0 0 0 0 0 0 0 0 0 0 0 0 0 0 0 0 0 0 0 0 0 0 0 0 0 0 0 0 0 0 0 0 0 0 0
Wind_Speed_500mb
46 50 51 51 49 45 51 57 57 52 52 79 87 79 75 79 85 80 77 68 62 59 53 50 48 51 54 53 47 42 38 35 32 27 25 24 27 27 29 27 26 24 24
46 37 46 53 49 46 54 60 62 58 51 71 87 82 73 74 84 86 84 74 68 64 58 54 52 54 54 54 51 51 42 41 42 35 24 18 30 33 33 32 32 30 30
48 43 43 48 45 44 51 60 69 61 57 64 63 75 64 66 76 92 85 78 74 66 61 57 57 56 55 58 57 56 55 45 50 49 25 17 21 29 37 38 38 36 35
52 41 45 43 43 42 52 65 65 58 62 80 78 83 83 85 88 95 87 81 82 72 68 61 61 60 62 62 61 61 62 55 55 55 56 37 18 18 18 36 39 37 38
50 43 47 43 41 43 49 58 61 71 75 68 84 83 84 81 79 84 88 87 83 77 72 68 64 65 66 63 65 67 65 62 59 62 55 54 54 46 24 26 34 43 43
40 47 45 37 35 36 41 52 56 54 46 75 84 83 70 77 83 85 80 88 85 81 76 73 70 68 68 68 70 69 67 67 68 68 66 61 59 59 53 45 49 44 41
49 46 40 36 31 31 31 41 45 45 39 54 45 58 66 43 72 66 79 84 89 87 82 77 75 74 72 72 74 73 75 76 77 74 72 68 65 57 58 51 58 52 48
46 41 38 37 32 30 32 30 30 28 27 29 26 35 40 48 47 56 68 85 88 86 85 86 82 78 78 76 75 80 86 81 92 76 75 73 70 71 67 64 57 39 31
46 39 37 36 34 33 37 37 36 28 25 28 30 34 47 55 60 61 57 99 84 76 76 82 91 82 79 78 81 77 83 84 88 70 80 76 69 73 66 69 47 41 26
49 44 41 43 40 39 37 32 29 23 16 19 18 22 32 43 47 49 68 71 87 66 59 53 51 62 58 53 55 71 65 67 61 60 77 76 56 44 42 33 30 21 26
53 49 47 50 49 42 38 31 27 21 21 17 16 11 13 14 22 24 30 24 35 27 25 44 48 62 69 59 56 55 45 49 42 48 29 27 21 15 13 12 13 15 21
54 51 52 58 63 56 47 42 36 28 24 24 25 25 19 19 19 26 23 21 24 23 19 27 32 32 30 33 33 42 34 36 33 22 20 16 6 3 4 3 3 13 18
50 54 58 62 66 64 58 58 51 46 41 38 42 46 45 46 45 43 46 43 39 34 33 30 33 26 27 28 21 18 18 21 22 18 15 8 11 10 6 7 5 8 13
53 57 57 59 59 60 58 51 48 43 38 35 37 34 34 36 38 37 32 34 33 29 34 30 27 31 25 17 13 11 9 9 5 9 12 18 15 11 11 12 12 15 14
57 58 56 54 54 51 46 40 35 30 25 22 26 30 31 29 28 29 26 27 24 22 19 19 18 17 19 20 16 13 9 6 6 8 16 17 15 11 11 13 13 12 9
53 56 57 54 54 53 50 45 43 39 29 26 28 28 27 28 30 31 28 25 25 25 24 22 21 19 19 17 17 16 16 15 13 15 17 15 12 11 9 7 6 5 4
48 56 57 54 55 52 48 47 45 42 37 38 36 33 28 26 27 28 28 28 27 27 26 27 23 22 24 22 21 22 19 20 18 16 14 13 13 10 8 5 3 3 1
51 54 52 52 51 47 47 44 42 40 37 39 38 37 31 33 34 30 29 27 29 32 32 31 27 24 28 27 23 21 19 17 16 14 13 11 8 6 4 2 1 3 5
48 50 48 46 44 45 42 39 41 38 36 37 35 32 29 30 31 30 29 27 22 24 24 25 24 20 22 21 18 17 14 13 12 10 8 6 4 0 3 4 6 10 11
44 43 43 42 43 43 38 37 38 35 37 34 32 29 28 26 25 26 25 25 22 23 24 21 20 17 16 15 12 11 9 8 6 5 3 3 4 5 8 10 13 15 19
40 38 38 41 42 40 34 37 34 36 35 31 28 26 24 23 22 22 21 19 17 16 18 16 14 11 9 8 5 3 1 3 3 5 5 7 8 11 13 16 19 22 26
36 37 36 38 37 37 34 33 31 32 28 25 23 21 20 18 17 16 16 15 13 10 10 9 9 6 3 1 2 3 6 8 9 10 11 14 15 17 20 23 27 30 32
35 34 34 33 32 31 29 25 26 25 23 21 19 17 16 13 13 13 12 10 8 8 8 8 6 4 4 4 6 8 11 14 15 17 18 21 23 25 28 31 34 36 37
34 35 33 33 32 29 25 21 18 15 14 14 14 13 12 12 11 10 8 6 4 5 5 5 5 6 7 9 11 13 15 18 21 23 25 27 29 30 34 36 36 38 38
25 25 24 24 22 21 19 18 17 15 13 12 12 14 15 16 16 14 13 11 9 9 8 7 8 10 11 13 15 16 19 23 27 31 34 36 37 39 41 41 38 40 45
16 16 17 18 19 19 19 18 16 14 14 16 16 15 16 17 18 19 20 21 22 20 18 19 17 19 20 23 25 27 28 31 37 37 38 38 37 37 40 42 46 46 45
Wind_Direction_500mb
260 256 251 259 253 256 237 235 219 222 225 221 214 216 221 217 219 222 226 223 226 230 228 223 222 218 217 217 215 208 200 202 204 194 202 217 218 218 224 228 228 228 227
253 251 239 248 243 246 230 234 226 220 218 230 222 222 223 222 220 224 226 224 226 229 228 225 224 218 215 213 210 206 203 206 209 206 209 225 226 226 228 228 231 235 236
252 244 239 236 234 236 225 231 227 222 227 231 231 228 228 227 231 231 226 223 227 230 229 228 226 221 218 216 214 209 207 209 211 208 204 207 226 221 229 230 234 238 241
240 241 234 227 223 220 221 219 222 220 227 245 234 228 217 216 223 228 226 227 228 228 227 229 228 224 222 220 218 214 214 214 216 213 218 225 220 201 214 231 233 237 244
229 217 225 216 217 212 220 215 215 220 219 221 228 225 224 221 221 229 227 227 228 228 229 229 228 225 226 226 222 221 221 223 221 221 222 229 236 240 233 240 242 247 249
194 208 209 197 198 206 211 217 230 211 215 204 219 218 216 229 228 226 234 232 229 228 229 229 229 227 227 227 225 226 228 229 228 227 228 232 235 238 239 238 252 247 246
188 189 184 178 178 183 189 212 220 222 219 210 208 216 231 225 209 234 237 239 230 230 230 230 229 227 228 229 230 231 233 232 231 230 232 234 239 245 249 248 243 247 237
170 170 166 163 171 173 168 169 194 193 206 224 217 225 238 251 238 237 241 236 245 238 232 233 231 230 231 234 237 239 241 243 238 230 238 236 245 249 251 255 240 225 222
152 146 142 150 154 158 156 161 175 186 210 226 234 243 251 256 249 256 261 227 236 244 242 240 231 229 234 239 240 256 248 252 246 224 232 238 244 256 245 249 234 226 216
130 126 128 135 134 138 140 144 155 165 181 236 250 253 248 249 252 257 245 238 232 228 215 224 232 222 241 259 262 246 247 253 230 234 232 237 242 230 231 219 214 221 239
113 115 119 121 119 122 128 129 134 141 169 181 179 188 197 208 217 209 206 186 199 213 242 226 229 245 250 257 225 228 235 225 231 220 207 219 219 179 211 207 232 235 238
106 112 115 114 110 110 109 108 105 112 119 127 132 132 128 119 142 162 166 181 203 188 211 239 228 223 213 224 209 199 207 205 187 168 150 136 154 154 198 159 245 270 256
102 104 102 101 101 101 101 99 99 100 101 102 107 110 112 108 104 102 107 109 112 126 124 127 128 132 138 127 121 128 127 145 144 133 128 172 187 205 240 245 208 233 246
92 93 90 92 98 101 102 105 105 107 103 105 103 102 104 105 107 107 107 107 107 113 120 119 119 129 124 110 102 106 88 149 176 154 167 178 162 168 196 210 195 190 193
83 86 87 88 91 97 99 101 100 102 102 98 99 98 98 96 97 101 103 101 110 119 115 112 124 128 121 113 111 112 125 154 197 159 131 131 140 155 162 162 169 167 159
75 80 84 87 88 90 92 95 93 90 94 95 94 91 92 99 102 97 96 103 106 107 110 114 123 133 136 146 153 149 144 143 145 138 143 155 155 163 161 149 146 148 164
73 76 78 83 85 86 91 92 95 96 100 97 94 87 85 94 93 89 86 92 100 103 111 115 116 120 119 116 113 109 115 123 135 142 146 148 158 161 160 166 182 195 240
69 75 77 80 82 85 87 88 90 93 93 94 95 95 97 93 91 95 98 98 100 106 108 110 111 109 111 112 118 124 130 133 140 144 151 156 156 158 165 182 259 308 305
71 73 76 79 81 82 85 88 88 88 86 84 83 83 84 90 95 100 103 104 102 102 106 110 113 117 119 120 122 121 124 130 139 148 157 158 173 327 341 319 316 308 307
72 74 75 78 80 79 79 82 83 84 84 83 82 82 83 84 87 87 90 92 96 99 101 103 106 108 115 115 119 125 133 136 145 165 203 244 285 296 305 307 305 305 309
76 75 76 76 76 77 76 78 80 80 77 77 76 75 76 77 81 86 91 87 84 87 96 100 103 105 112 121 139 132 180 223 239 250 268 274 277 287 296 299 302 306 306
81 81 80 78 75 73 71 72 72 72 73 72 70 71 72 72 73 74 77 80 77 77 77 83 93 89 89 38 281 284 285 288 282 280 279 280 281 287 291 295 297 300 304
80 79 75 74 73 70 67 62 61 58 58 57 54 54 54 52 51 50 54 58 58 55 54 51 40 38 344 327 319 310 301 297 291 291 292 292 291 291 292 293 295 300 306
70 67 64 62 61 59 56 52 48 41 31 26 18 19 21 18 24 26 25 35 48 40 30 0 336 324 306 297 294 292 288 286 287 286 285 284 282 284 285 290 296 302 305
67 61 53 48 43 36 29 24 18 13 5 357 345 332 321 317 317 320 319 320 318 323 322 310 309 312 306 297 294 296 300 298 297 297 292 289 288 287 287 291 297 298 300
55 43 29 17 4 354 347 341 333 323 319 316 312 304 300 298 302 302 297 290 288 286 279 278 269 267 265 274 284 292 301 310 309 303 297 293 293 289 286 287 287 293 294
Wind_Speed_850mb
46 50 51 51 49 45 51 57 57 52 52 79 87 79 75 79 85 80 77 68 62 59 53 50 48 51 54 53 47 42 38 35 32 27 25 24 27 27 29 27 26 24 24
46 37 46 53 49 46 54 60 62 58 51 71 87 82 73 74 84 86 84 74 68 64 58 54 52 54 54 54 51 51 42 41 42 35 24 18 30 33 33 32 32 30 30
48 43 43 48 45 44 51 60 69 61 57 64 63 75 64 66 76 92 85 78 74 66 61 57 57 56 55 58 57 56 55 45 50 49 25 17 21 29 37 38 38 36 35
52 41 45 43 43 42 52 65 65 58 62 80 78 83 83 85 88 95 87 81 82 72 68 61 61 60 62 62 61 61 62 55 55 55 56 37 18 18 18 36 39 37 38
50 43 47 43 41 43 49 58 61 71 75 68 84 83 84 81 79 84 88 87 83 77 72 68 64 65 66 63 65 67 65 62 59 62 55 54 54 46 24 26 34 43 43
40 47 45 37 35 36 41 52 56 54 46 75 84 83 70 77 83 85 80 88 85 81 76 73 70 68 68 68 70 69 67 67 68 68 66 61 59 59 53 45 49 44 41
49 46 40 36 31 31 31 41 45 45 39 54 45 58 66 43 72 66 79 84 89 87 82 77 75 74 72 72 74 73 75 76 77 74 72 68 65 57 58 51 58 52 48
46 41 38 37 32 30 32 30 30 28 27 29 26 35 40 48 47 56 68 85 88 86 85 86 82 78 78 76 75 80 86 81 92 76 75 73 70 71 67 64 57 39 31
46 39 37 36 34 33 37 37 36 28 25 28 30 34 47 55 60 61 57 99 84 76 76 82 91 82 79 78 81 77 83 84 88 70 80 76 69 73 66 69 47 41 26
49 44 41 43 40 39 37 32 29 23 16 19 18 22 32 43 47 49 68 71 87 66 59 53 51 62 58 53 55 71 65 67 61 60 77 76 56 44 42 33 30 21 26
53 49 47 50 49 42 38 31 27 21 21 17 16 11 13 14 22 24 30 24 35 27 25 44 48 62 69 59 56 55 45 49 42 48 29 27 21 15 13 12 13 15 21
54 51 52 58 63 56 47 42 36 28 24 24 25 25 19 19 19 26 23 21 24 23 19 27 32 32 30 33 33 42 34 36 33 22 20 16 6 3 4 3 3 13 18
50 54 58 62 66 64 58 58 51 46 41 38 42 46 45 46 45 43 46 43 39 34 33 30 33 26 27 28 21 18 18 21 22 18 15 8 11 10 6 7 5 8 13
53 57 57 59 59 60 58 51 48 43 38 35 37 34 34 36 38 37 32 34 33 29 34 30 27 31 25 17 13 11 9 9 5 9 12 18 15 11 11 12 12 15 14
57 58 56 54 54 51 46 40 35 30 25 22 26 30 31 29 28 29 26 27 24 22 19 19 18 17 19 20 16 13 9 6 6 8 16 17 15 11 11 13 13 12 9
53 56 57 54 54 53 50 45 43 39 29 26 28 28 27 28 30 31 28 25 25 25 24 22 21 19 19 17 17 16 16 15 13 15 17 15 12 11 9 7 6 5 4
48 56 57 54 55 52 48 47 45 42 37 38 36 33 28 26 27 28 28 28 27 27 26 27 23 22 24 22 21 22 19 20 18 16 14 13 13 10 8 5 3 3 1
51 54 52 52 51 47 47 44 42 40 37 39 38 37 31 33 34 30 29 27 29 32 32 31 27 24 28 27 23 21 19 17 16 14 13 11 8 6 4 2 1 3 5
48 50 48 46 44 45 42 39 41 38 36 37 35 32 29 30 31 30 29 27 22 24 24 25 24 20 22 21 18 17 14 13 12 10 8 6 4 0 3 4 6 10 11
44 43 43 42 43 43 38 37 38 35 37 34 32 29 28 26 25 26 25 25 22 23 24 21 20 17 16 15 12 11 9 8 6 5 3 3 4 5 8 10 13 15 19
40 38 38 41 42 40 34 37 34 36 35 31 28 26 24 23 22 22 21 19 17 16 18 16 14 11 9 8 5 3 1 3 3 5 5 7 8 11 13 16 19 22 26
36 37 36 38 37 37 34 33 31 32 28 25 23 21 20 18 17 16 16 15 13 10 10 9 9 6 3 1 2 3 6 8 9 10 11 14 15 17 20 23 27 30 32
35 34 34 33 32 31 29 25 26 25 23 21 19 17 16 13 13 13 12 10 8 8 8 8 6 4 4 4 6 8 11 14 15 17 18 21 23 25 28 31 34 36 37
34 35 33 33 32 29 25 21 18 15 14 14 14 13 12 12 11 10 8 6 4 5 5 5 5 6 7 9 11 13 15 18 21 23 25 27 29 30 34 36 36 38 38
25 25 24 24 22 21 19 18 17 15 13 12 12 14 15 16 16 14 13 11 9 9 8 7 8 10 11 13 15 16 19 23 27 31 34 36 37 39 41 41 38 40 45
16 16 17 18 19 19 19 18 16 14 14 16 16 15 16 17 18 19 20 21 22 20 18 19 17 19 20 23 25 27 28 31 37 37 38 38 37 37 40 42 46 46 45
Wind_Direction_850mb
260 256 251 259 253 256 237 235 219 222 225 221 214 216 221 217 219 222 226 223 226 230 228 223 222 218 217 217 215 208 200 202 204 194 202 217 218 218 224 228 228 228 227
253 251 239 248 243 246 230 234 226 220 218 230 222 222 223 222 220 224 226 224 226 229 228 225 224 218 215 213 210 206 203 206 209 206 209 225 226 226 228 228 231 235 236
252 244 239 236 234 236 225 231 227 222 227 231 231 228 228 227 231 231 226 223 227 230 229 228 226 221 218 216 214 209 207 209 211 208 204 207 226 221 229 230 234 238 241
240 241 234 227 223 220 221 219 222 220 227 245 234 228 217 216 223 228 226 227 228 228 227 229 228 224 222 220 218 214 214 214 216 213 218 225 220 201 214 231 233 237 244
229 217 225 216 217 212 220 215 215 220 219 221 228 225 224 221 221 229 227 227 228 228 229 229 228 225 226 226 222 221 221 223 221 221 222 229 236 240 233 240 242 247 249
194 208 209 197 198 206 211 217 230 211 215 204 219 218 216 229 228 226 234 232 229 228 229 229 229 227 227 227 225 226 228 229 228 227 228 232 235 238 239 238 252 247 246
188 189 184 178 178 183 189 212 220 222 219 210 208 216 231 225 209 234 237 239 230 230 230 230 229 227 228 229 230 231 233 232 231 230 232 234 239 245 249 248 243 247 237
170 170 166 163 171 173 168 169 194 193 206 224 217 225 238 251 238 237 241 236 245 238 232 233 231 230 231 234 237 239 241 243 238 230 238 236 245 249 251 255 240 225 222
152 146 142 150 154 158 156 161 175 186 210 226 234 243 251 256 249 256 261 227 236 244 242 240 231 229 234 239 240 256 248 252 246 224 232 238 244 256 245 249 234 226 216
130 126 128 135 134 138 140 144 155 165 181 236 250 253 248 249 252 257 245 238 232 228 215 224 232 222 241 259 262 246 247 253 230 234 232 237 242 230 231 219 214 221 239
113 115 119 121 119 122 128 129 134 141 169 181 179 188 197 208 217 209 206 186 199 213 242 226 229 245 250 257 225 228 235 225 231 220 207 219 219 179 211 207 232 235 238
106 112 115 114 110 110 109 108 105 112 119 127 132 132 128 119 142 162 166 181 203 188 211 239 228 223 213 224 209 199 207 205 187 168 150 136 154 154 198 159 245 270 256
102 104 102 101 101 101 101 99 99 100 101 102 107 110 112 108 104 102 107 109 112 126 124 127 128 132 138 127 121 128 127 145 144 133 128 172 187 205 240 245 208 233 246
92 93 90 92 98 101 102 105 105 107 103 105 103 102 104 105 107 107 107 107 107 113 120 119 119 129 124 110 102 106 88 149 176 154 167 178 162 168 196 210 195 190 193
83 86 87 88 91 97 99 101 100 102 102 98 99 98 98 96 97 101 103 101 110 119 115 112 124 128 121 113 111 112 125 154 197 159 131 131 140 155 162 162 169 167 159
75 80 84 87 88 90 92 95 93 90 94 95 94 91 92 99 102 97 96 103 106 107 110 114 123 133 136 146 153 149 144 143 145 138 143 155 155 163 161 149 146 148 164
73 76 78 83 85 86 91 92 95 96 100 97 94 87 85 94 93 89 86 92 100 103 111 115 116 120 119 116 113 109 115 123 135 142 146 148 158 161 160 166 182 195 240
69 75 77 80 82 85 87 88 90 93 93 94 95 95 97 93 91 95 98 98 100 106 108 110 111 109 111 112 118 124 130 133 140 144 151 156 156 158 165 182 259 308 305
71 73 76 79 81 82 85 88 88 88 86 84 83 83 84 90 95 100 103 104 102 102 106 110 113 117 119 120 122 121 124 130 139 148 157 158 173 327 341 319 316 308 307
72 74 75 78 80 79 79 82 83 84 84 83 82 82 83 84 87 87 90 92 96 99 101 103 106 108 115 115 119 125 133 136 145 165 203 244 285 296 305 307 305 305 309
76 75 76 76 76 77 76 78 80 80 77 77 76 75 76 77 81 86 91 87 84 87 96 100 103 105 112 121 139 132 180 223 239 250 268 274 277 287 296 299 302 306 306
81 81 80 78 75 73 71 72 72 72 73 72 70 71 72 72 73 74 77 80 77 77 77 83 93 89 89 38 281 284 285 288 282 280 279 280 281 287 291 295 297 300 304
80 79 75 74 73 70 67 62 61 58 58 57 54 54 54 52 51 50 54 58 58 55 54 51 40 38 344 327 319 310 301 297 291 291 292 292 291 291 292 293 295 300 306
70 67 64 62 61 59 56 52 48 41 31 26 18 19 21 18 24 26 25 35 48 40 30 0 336 324 306 297 294 292 288 286 287 286 285 284 282 284 285 290 296 302 305
67 61 53 48 43 36 29 24 18 13 5 357 345 332 321 317 317 320 319 320 318 323 322 310 309 312 306 297 294 296 300 298 297 297 292 289 288 287 287 291 297 298 300
55 43 29 17 4 354 347 341 333 323 319 316 312 304 300 298 302 302 297 290 288 286 279 278 269 267 265 274 284 292 301 310 309 303 297 293 293 289 286 287 287 293 294